Location: Bauerbach
(50.4985°N, 10.3912°E)
Time: 09:17:37
(UTC+00:00)

Okean 3 Rocket - Pass Details

Date: 13 January 2026
Orbit: 610 x 637 km, 82.5° (Epoch: 18 February)

Event Time Altitude Azimuth Distance (km) Brightness Sun altitude
Rises 05:23:47 0° 206° (SSW) 2,870 6.9 -16.9°
Reaches altitude 10° 05:26:05 10° 213° (SSW) 1,974 5.9 -16.6°
Maximum altitude 05:30:15 44° 286° (WNW) 865 3.8 -15.9°
Drops below altitude 10° 05:34:31 10° 359° (N) 2,005 6.0 -15.3°
Sets 05:36:51 0° 6° (N) 2,921 6.9 -14.9°
